Location: Bavegemberg
(50.9500°N, 3.8833°E)
Time: 02:21:13
(UTC+00:00)

ATLAS 2AS CENTAUR R/B - Pass Details

Date: 23 May 2024
Orbit: 1017 x 1194 km, 63.7° (Epoch: 16 June)

Event Time Altitude Azimuth Distance (km) Brightness Sun altitude
Rises 01:29:44 0° 313° (NW) 3,934 5.9 -14.5°
Reaches altitude 10° 01:32:33 10° 318° (NW) 2,947 5.3 -14.3°
Maximum altitude 01:39:21 54° 35° (NE) 1,269 3.5 -13.8°
Drops below altitude 10° 01:45:53 10° 113° (ESE) 2,831 5.0 -13.3°
Sets 01:48:32 0° 118° (ESE) 3,767 5.6 -13.1°
